This is the latest recevied weather packets stored in our database for station/object K7CTM. If no packets are shown the sender has not sent any weather packets the latest 10 day(s).
| Time | Temp. | Humidity | Pressure | Rain* | Wind** | Luminosity | Snow |
|---|---|---|---|---|---|---|---|
| 1788627529 | 21.67° C | 35% | 1029.5 hPa | 0 mm | - | 582 W/m² | - |
| 1788627224 | 21.67° C | 35% | 1029.5 hPa | 0 mm | - | 571 W/m² | - |
| 1788626924 | 22.78° C | 33% | 1029.4 hPa | 0 mm | - | 559 W/m² | - |
| 1788626619 | 22.22° C | 35% | 1029.4 hPa | 0 mm | - | 550 W/m² | - |
| 1788626314 | 22.22° C | 35% | 1029.5 hPa | 0 mm | - | 539 W/m² | - |
| 1788626011 | 21.67° C | 35% | 1029.6 hPa | 0 mm | - | 527 W/m² | - |
| 1788625707 | 21.11° C | 37% | 1029.2 hPa | 0 mm | - | 517 W/m² | - |
| 1788625400 | 21.11° C | 36% | 1029.2 hPa | 0 mm | - | 502 W/m² | - |
| 1788625095 | 21.11° C | 36% | 1029.4 hPa | 0 mm | - | 489 W/m² | - |
| 1788624794 | 21.11° C | 37% | 1029.4 hPa | 0 mm | - | 475 W/m² | - |
| 1788624487 | 21.11° C | 36% | 1029.4 hPa | 0 mm | - | 459 W/m² | - |
| 1788624187 | 20.56° C | 38% | 1029.2 hPa | 0 mm | - | 449 W/m² | - |
| 1788623882 | 20° C | 38% | 1029.2 hPa | 0 mm | - | 433 W/m² | - |
| 1788623581 | 20° C | 38% | 1029.1 hPa | 0 mm | - | 418 W/m² | - |
| 1788623274 | 18.89° C | 40% | 1029.4 hPa | 0 mm | - | 401 W/m² | - |
| 1788622971 | 18.89° C | 42% | 1029.4 hPa | 0 mm | - | 385 W/m² | - |
| 1788622666 | 17.78° C | 43% | 1029.4 hPa | 0 mm | - | 370 W/m² | - |
| 1788622362 | 17.78° C | 43% | 1029.4 hPa | 0 mm | - | 356 W/m² | - |
| 1788622057 | 17.78° C | 44% | 1029.4 hPa | 0 mm | - | 185 W/m² | - |
| 1788621751 | 17.22° C | 44% | 1029.5 hPa | 0 mm | - | 320 W/m² | - |
| 1788621450 | 17.22° C | 45% | 1029.4 hPa | 0 mm | - | 300 W/m² | - |
| 1788621147 | 16.11° C | 47% | 1029.5 hPa | 0 mm | - | 284 W/m² | - |
| 1788620841 | 16.11° C | 47% | 1029.4 hPa | 0 mm | - | 262 W/m² | - |
| 1788620540 | 16.11° C | 47% | 1029.7 hPa | 0 mm | - | 242 W/m² | - |
| 1788620238 | 15.56° C | 48% | 1029.5 hPa | 0 mm | - | 227 W/m² | - |
* Rain latest hour (hover to see other rain measurements)
** Current wind speed in m/s (hover to see current wind gust speed)